FW1267 Weather Reports


time (UTC)temp
C
wind
direction
speed
KPH
gust
KPH
rain 1hr
cm
rain 24hr
cm
rain mn
cm
humidity
%
barometer
mb
20260507020101 14 340 0.0 4.8 0.00 0.43 0.43 81 1009.3
20260507014604 15 340 0.0 4.8 0.00 0.43 0.43 81 1009.4
20260507013055 15 341 1.6 4.8 0.00 0.43 0.43 81 1009.4
20260507011552 15 321 1.6 6.4 0.00 0.43 0.43 82 1009.4
20260507010051 16 321 0.0 3.2 0.00 0.43 0.43 83 1009.4
20260507004549 16 321 0.0 1.6 0.00 0.43 0.43 83 1009.0
20260507003051 17 321 0.0 4.8 0.00 0.43 0.43 83 1008.9
20260507001547 17 232 1.6 4.8 0.00 0.43 0.43 84 1008.5
20260507000046 17 314 0.0 4.8 0.00 0.43 0.43 85 1007.8
20260506234545 17 315 0.0 3.2 0.00 0.43 0.43 85 1007.7
20260506233053 17 13 0.0 6.4 0.00 0.43 0.43 84 1007.5
20260506231544 18 239 0.0 4.8 0.00 0.43 0.43 82 1007.7
20260506230045 18 236 0.0 3.2 0.00 0.43 0.43 81 1007.6
20260506224544 18 238 0.0 9.7 0.00 0.43 0.43 81 1007.4
20260506223043 18 243 0.0 8.0 0.00 0.43 0.43 80 1007.3
20260506221543 18 217 0.0 8.0 0.00 0.43 0.43 81 1007.3
20260506220042 18 239 1.6 6.4 0.00 0.43 0.43 82 1007.0
20260506214542 18 236 3.2 6.4 0.00 0.43 0.43 82 1006.7
20260506213044 18 238 0.0 6.4 0.00 0.43 0.43 82 1006.9
20260506211542 18 217 0.0 8.0 0.00 0.43 0.43 82 1006.6
20260506210040 18 246 3.2 9.7 0.00 0.43 0.43 82 1006.6
20260506204545 18 237 4.8 19.3 0.00 0.43 0.43 82 1006.3
20260506203040 18 225 1.6 9.7 0.00 0.43 0.43 83 1006.5
20260506201538 17 221 1.6 12.9 0.00 0.43 0.43 83 1006.6
20260506200037 17 219 0.0 9.7 0.00 0.43 0.43 83 1006.6
20260506194538 17 217 1.6 14.5 0.00 0.43 0.43 84 1006.6
20260506193034 17 261 4.8 24.1 0.00 0.43 0.43 83 1006.7
20260506191535 17 232 1.6 17.7 0.00 0.43 0.43 83 1006.7
20260506190035 17 240 6.4 19.3 0.00 0.43 0.43 83 1006.7
20260506184534 17 229 4.8 24.1 0.00 0.43 0.43 84 1006.8
20260506183032 17 224 6.4 24.1 0.03 0.43 0.43 85 1006.9
20260506181531 16 213 3.2 12.9 0.03 0.43 0.43 88 1007.1
20260506180038 16 242 4.8 17.7 0.03 0.43 0.43 89 1007.2
20260506174530 16 252 3.2 14.5 0.03 0.43 0.43 89 1007.2
20260506173029 15 173 3.2 20.9 0.00 0.41 0.41 89 1007.3
20260506171528 15 212 6.4 17.7 0.00 0.41 0.41 89 1007.3
20260506170027 15 236 6.4 20.9 0.00 0.41 0.41 90 1007.2
20260506164526 15 192 3.2 24.1 0.00 0.41 0.41 91 1007.2
20260506163046 15 219 1.6 11.3 0.00 0.41 0.41 91 1007.3
20260506161524 15 177 3.2 16.1 0.05 0.41 0.41 92 1007.4
20260506160024 15 221 4.8 12.9 0.10 0.41 0.41 91 1007.5
20260506154521 15 219 1.6 12.9 0.15 0.41 0.41 91 1007.2
20260506153019 15 186 1.6 8.0 0.18 0.41 0.41 91 1006.8
20260506151519 15 171 1.6 14.5 0.15 0.36 0.36 91 1007.7
20260506150020 15 192 1.6 11.3 0.15 0.30 0.30 90 1008.0
20260506144517 15 183 1.6 14.5 0.15 0.25 0.25 90 1008.3
20260506143017 15 219 3.2 14.5 0.20 0.23 0.23 89 1008.1
20260506141515 15 235 1.6 27.4 0.18 0.20 0.20 89 1007.9
20260506140014 15 165 3.2 16.1 0.13 0.15 0.15 88 1007.8
20260506134512 15 170 1.6 4.8 0.08 0.08 0.08 87 1007.7
20260506133010 16 232 0.0 12.9 0.03 0.03 0.03 85 1007.8
20260506131513 16 221 1.6 8.0 0.03 0.03 0.03 84 1007.9
20260506130007 16 243 1.6 8.0 0.03 0.03 0.03 84 1007.9
20260506124505 16 211 3.2 12.9 0.00 0.00 0.00 82 1008.2
20260506123004 16 234 1.6 9.7 0.00 0.00 0.00 82 1008.2
20260506121503 16 181 3.2 14.5 0.00 0.00 0.00 81 1008.3
20260506120001 16 240 3.2 16.1 0.00 0.00 0.00 81 1008.1
20260506114607 17 225 6.4 25.7 0.00 0.00 0.00 79 1007.9
20260506113056 17 218 3.2 17.7 0.00 0.00 0.00 77 1007.8
20260506111554 17 228 6.4 24.1 0.00 0.00 0.00 76 1007.7
20260506110059 18 239 3.2 16.1 0.00 0.00 0.00 74 1007.5
20260506104550 18 215 6.4 24.1 0.00 0.00 0.00 72 1007.2
20260506103048 18 168 9.7 24.1 0.00 0.00 0.00 72 1007.3
20260506101554 18 250 6.4 27.4 0.00 0.00 0.00 72 1007.2
20260506100047 18 170 3.2 14.5 0.00 0.00 0.00 71 1007.1
20260506094604 18 184 6.4 20.9 0.00 0.00 0.00 71 1007.1
20260506093044 18 192 3.2 25.7 0.00 0.00 0.00 70 1007.1
20260506091540 18 223 3.2 19.3 0.00 0.00 0.00 69 1007.2
20260506090037 19 238 4.8 17.7 0.00 0.00 0.00 68 1007.5
20260506084536 19 216 4.8 22.5 0.00 0.00 0.00 67 1007.3
20260506083034 19 182 6.4 20.9 0.00 0.00 0.00 66 1007.3
20260506081531 20 160 4.8 20.9 0.00 0.00 0.00 64 1007.3
20260506073026 20 190 4.8 20.9 0.00 0.00 0.00 62 1007.5
20260506071530 20 212 1.6 14.5 0.00 0.00 0.00 61 1007.7
20260506061528 21 228 8.0 25.7 0.00 0.00 0.00 59 1008.3
20260506044510 20 181 1.6 16.1 0.00 0.00 0.00 56 1008.7
20260506043008 21 237 6.4 24.1 0.00 0.00 0.00 53 1008.6
20260506041505 21 194 9.7 29.0 0.00 0.00 0.00 52 1008.8
20260506040005 21 198 6.4 24.1 0.00 0.00 0.00 52 1008.6
20260506034503 20 211 1.6 17.7 0.00 0.00 0.00 52 1008.7
20260506033001 20 204 3.2 16.1 0.00 0.00 0.00 51 1008.8
20260506031510 20 206 0.0 4.8 0.00 0.00 0.00 50 1008.7
20260506024559 21 221 1.6 6.4 0.00 0.00 0.00 50 1008.8
20260506023059 22 209 0.0 17.7 0.00 0.00 0.00 44 1008.8
20260506021600 22 207 4.8 16.1 0.00 0.00 0.00 43 1008.7